FW6820 Weather Reports


time (UTC)temp
C
wind
direction
speed
KPH
gust
KPH
rain 1hr
cm
rain 24hr
cm
rain mn
cm
humidity
%
barometer
mb
20260510190046 32 127 8.0 22.5 0.00 0.03 0.00 67 1010.9
20260510184606 32 140 11.3 17.7 0.00 0.03 0.00 67 1011.0
20260510183041 32 115 6.4 14.5 0.00 0.03 0.00 69 1011.1
20260510181554 32 157 6.4 20.9 0.00 0.03 0.00 69 1011.2
20260510180051 31 121 4.8 14.5 0.00 0.03 0.00 73 1011.3
20260510174536 31 89 3.2 14.5 0.00 0.05 0.00 75 1011.7
20260510173040 30 137 11.3 22.5 0.00 0.05 0.00 76 1011.7
20260510171557 30 116 4.8 17.7 0.00 0.05 0.00 79 1011.9
20260510170041 29 123 11.3 17.7 0.00 0.05 0.00 78 1011.9
20260510164538 29 126 4.8 14.5 0.00 0.10 0.00 79 1011.5
20260510163035 28 146 11.3 20.9 0.00 0.10 0.00 79 1011.5
20260510161541 29 125 6.4 20.9 0.00 0.10 0.00 78 1011.5
20260510160047 29 29 3.2 12.9 0.00 0.10 0.00 79 1011.3
20260510154558 28 78 3.2 12.9 0.00 0.15 0.00 82 1011.4
20260510153047 28 90 3.2 11.3 0.00 0.15 0.00 84 1011.6
20260510151543 27 90 6.4 16.1 0.00 0.15 0.00 86 1011.4
20260510150051 26 105 4.8 11.3 0.00 0.15 0.00 88 1011.4
20260510144557 26 107 4.8 12.9 0.00 0.20 0.00 90 1011.5
20260510143039 26 108 1.6 6.4 0.00 0.20 0.00 91 1011.5
20260510141541 25 96 4.8 11.3 0.00 0.20 0.00 92 1011.5
20260510140035 25 0 4.8 11.3 0.00 0.20 0.00 93 1011.3
20260510134548 24 76 3.2 14.5 0.00 0.23 0.00 93 1011.3
20260510133041 24 52 4.8 12.9 0.00 0.23 0.00 93 1011.2
20260510131541 24 65 1.6 11.3 0.00 0.23 0.00 93 1011.1
20260510130039 23 40 1.6 11.3 0.00 0.23 0.00 93 1011.0
20260510124546 23 59 3.2 8.0 0.00 0.25 0.00 92 1010.7
20260510123041 23 87 3.2 9.7 0.00 0.25 0.00 92 1010.8
20260510121541 23 0 1.6 6.4 0.00 0.25 0.00 92 1010.7
20260510120038 23 0 0.0 6.4 0.00 0.25 0.00 92 1010.3
20260510114533 23 74 1.6 8.0 0.00 0.30 0.00 92 1010.0
20260510113043 23 67 3.2 8.0 0.00 0.30 0.00 92 1009.8
20260510111546 23 66 4.8 8.0 0.00 0.30 0.00 91 1009.9
20260510110042 24 74 1.6 4.8 0.00 0.30 0.00 91 1009.8
20260510104552 24 0 0.0 6.4 0.00 0.30 0.00 91 1009.8
20260510103039 24 144 0.0 4.8 0.00 0.30 0.00 91 1009.8
20260510101539 24 176 0.0 3.2 0.00 0.30 0.00 91 1009.7
20260510100050 24 176 1.6 6.4 0.00 0.30 0.00 91 1009.6
20260510094539 24 150 4.8 11.3 0.00 0.30 0.00 91 1009.8
20260510093046 24 147 3.2 6.4 0.00 0.30 0.00 91 1009.8
20260510091539 24 134 4.8 9.7 0.00 0.30 0.00 91 1009.6
20260510090044 24 127 4.8 11.3 0.00 0.30 0.00 91 1009.7
20260510084557 24 127 3.2 11.3 0.00 0.30 0.00 91 1009.8
20260510083056 23 118 1.6 6.4 0.00 0.30 0.00 91 1009.9
20260510081547 24 117 1.6 6.4 0.00 0.30 0.00 91 1010.3
20260510080037 24 140 4.8 11.3 0.00 0.30 0.00 91 1010.6
20260510074553 24 121 4.8 11.3 0.00 0.30 0.00 91 1010.9
20260510073049 23 90 0.0 4.8 0.00 0.30 0.00 90 1010.8
20260510071540 24 134 1.6 6.4 0.00 0.30 0.00 90 1010.8
20260510070042 24 0 1.6 6.4 0.00 0.30 0.00 90 1010.6
20260510064536 24 133 6.4 14.5 0.00 0.30 0.00 90 1010.3
20260510063040 24 136 4.8 14.5 0.00 0.30 0.00 89 1010.4
20260510061554 24 131 6.4 14.5 0.00 0.30 0.00 89 1010.6
20260510060044 25 126 4.8 14.5 0.00 0.30 0.00 88 1010.7
20260510054540 25 138 4.8 12.9 0.00 0.30 0.00 88 1010.8
20260510053041 25 126 6.4 16.1 0.00 0.30 0.00 88 1010.8
20260510051544 25 111 3.2 14.5 0.00 0.30 0.00 87 1010.9
20260510050045 25 123 3.2 14.5 0.00 0.30 0.00 87 1010.8
20260510044542 25 123 1.6 6.4 0.00 0.30 0.30 86 1010.8
20260510043048 25 0 0.0 3.2 0.00 0.30 0.30 85 1010.8
20260510041544 25 0 0.0 4.8 0.00 0.30 0.30 85 1010.9
20260510034547 25 99 1.6 4.8 0.00 0.30 0.30 83 1010.6
20260510033041 26 94 3.2 9.7 0.00 0.30 0.30 82 1010.4
20260510031555 26 93 3.2 9.7 0.00 0.30 0.30 81 1010.2
20260510030044 26 92 3.2 11.3 0.00 0.30 0.30 80 1010.0
20260510024536 26 71 3.2 11.3 0.00 0.30 0.30 78 1009.7
20260510023044 26 96 3.2 12.9 0.00 0.30 0.30 77 1009.4
20260510021540 27 96 3.2 11.3 0.00 0.30 0.30 76 1009.2
20260510020038 27 94 3.2 9.7 0.00 0.30 0.30 76 1009.1
20260510014537 27 86 4.8 12.9 0.00 0.30 0.30 75 1008.9
20260510013038 27 90 3.2 12.9 0.00 0.30 0.30 75 1008.7
20260510011541 27 89 3.2 16.1 0.00 0.30 0.30 74 1008.6
20260510010041 27 102 8.0 16.1 0.00 0.30 0.30 73 1008.4
20260510004539 28 65 8.0 17.7 0.00 0.30 0.30 73 1008.2
20260510003040 28 113 4.8 14.5 0.00 0.30 0.30 72 1008.0
20260510001535 28 61 4.8 14.5 0.00 0.30 0.30 71 1007.9
20260510000043 28 101 4.8 14.5 0.00 0.30 0.30 71 1007.8
20260509234540 28 103 4.8 12.9 0.00 0.30 0.30 71 1007.8
20260509233040 29 96 8.0 16.1 0.00 0.30 0.30 71 1007.8
20260509231543 29 111 4.8 17.7 0.00 0.30 0.30 71 1007.6
20260509230037 30 51 12.9 24.1 0.00 0.30 0.30 68 1007.5
20260509224539 31 42 4.8 20.9 0.00 0.30 0.30 68 1007.5
20260509223042 31 67 4.8 20.9 0.00 0.30 0.30 66 1007.5
20260509221538 31 63 9.7 20.9 0.00 0.30 0.30 66 1007.6
20260509220039 32 64 9.7 19.3 0.00 0.30 0.30 65 1007.6
20260509214540 32 30 6.4 14.5 0.00 0.30 0.30 64 1007.6
20260509213039 32 51 6.4 14.5 0.00 0.30 0.30 65 1007.6
20260509211537 32 12 4.8 16.1 0.00 0.30 0.30 65 1007.7
20260509210042 33 29 4.8 12.9 0.00 0.30 0.30 64 1007.9
20260509204546 32 74 1.6 8.0 0.00 0.30 0.30 64 1007.8
20260509203040 32 20 1.6 9.7 0.03 0.30 0.30 65 1007.8
20260509201540 31 205 0.0 6.4 0.03 0.30 0.30 66 1008.1
20260509200043 31 260 4.8 11.3 0.03 0.30 0.30 67 1008.3
20260509194540 31 289 3.2 8.0 0.03 0.30 0.30 69 1008.4
20260509193041 31 232 3.2 11.3 0.00 0.28 0.28 68 1008.8
20260509191542 31 257 1.6 11.3 0.00 0.28 0.28 68 1009.0